Kuchera_Ratio
0.0 0.0 0.0 0.0 0.0 0.0 0.0 0.0 0.0 0.0 0.0 0.0 0.0 0.0 0.0 0.0 0.0 0.0 0.0 0.0 0.0 0.0 0.0 0.0 0.0 0.0 0.0 0.0 0.0 0.0 0.0 0.0 0.0 0.0 0.0 0.0 0.0 0.0 0.0 0.0 0.0 0.0 0.0 0.0
0.0 0.0 0.0 0.0 0.0 0.0 0.0 0.0 0.0 0.0 0.0 0.0 0.0 0.6 0.0 0.0 0.0 0.0 0.0 0.0 0.0 0.0 0.0 0.0 0.0 0.0 0.0 0.0 0.0 0.0 0.0 0.0 0.0 0.0 0.0 0.0 0.0 0.0 0.0 0.0 0.0 0.0 0.0 0.0
0.0 0.0 0.0 0.0 0.0 0.0 0.0 0.0 0.0 0.0 0.0 0.0 0.0 6.1 0.0 0.0 0.0 0.0 0.0 0.0 0.0 0.0 0.0 0.0 0.0 0.0 0.0 0.0 0.0 0.0 0.0 0.0 0.0 0.0 0.0 0.0 0.0 0.0 0.0 0.0 0.0 0.0 0.0 0.0
0.0 0.0 0.0 0.0 0.0 0.0 0.0 0.0 0.0 0.0 0.0 4.9 0.0 11.3 8.8 1.5 2.0 0.0 0.0 0.0 0.0 0.0 0.0 0.0 0.0 0.0 0.0 0.0 0.0 0.0 0.0 0.0 0.0 0.0 0.0 0.0 0.0 0.0 0.0 0.0 0.0 0.0 0.0 0.0
0.0 0.0 0.0 0.0 0.0 0.0 0.0 0.0 0.0 0.0 0.0 0.0 0.0 8.3 9.2 3.6 4.9 2.4 0.0 0.0 0.0 0.0 0.0 0.0 0.0 0.0 0.0 0.0 0.0 0.0 0.0 0.0 0.0 0.0 0.0 0.0 0.0 0.0 0.0 0.0 0.0 0.0 0.0 0.0
0.0 0.0 0.0 0.0 0.0 0.0 0.0 0.0 0.0 0.0 0.0 6.4 0.0 5.9 14.1 12.4 5.6 2.8 0.0 0.0 0.0 0.0 0.0 0.0 0.0 0.0 0.0 0.0 0.0 0.0 0.0 0.0 0.0 0.0 0.0 0.0 0.0 0.0 0.0 0.0 0.0 0.0 0.0 0.0
0.0 0.0 0.0 0.0 0.0 0.0 0.0 0.0 2.8 5.5 8.8 12.4 2.6 10.0 12.4 4.6 1.5 0.0 0.4 0.0 0.0 0.0 0.0 0.0 0.0 0.0 0.0 0.0 0.0 0.0 0.0 0.0 0.0 0.0 0.0 0.0 0.0 0.0 0.0 0.0 0.0 0.0 0.0 0.0
0.0 0.0 0.0 0.0 0.0 0.0 0.0 1.8 8.6 13.0 13.0 12.4 3.7 14.3 12.9 0.0 0.0 0.0 0.0 0.0 0.0 0.0 0.0 0.0 0.0 0.0 0.0 0.0 0.0 0.0 0.0 0.0 0.0 0.0 0.0 0.0 0.0 0.0 0.0 0.0 0.0 0.0 0.0 0.0
0.0 0.5 0.0 0.0 0.0 0.0 0.0 4.1 0.0 8.7 9.6 13.6 12.9 9.9 3.5 0.0 1.3 0.0 0.0 0.0 0.0 0.0 0.0 0.0 0.0 0.0 0.0 0.0 0.0 0.0 0.0 0.0 0.0 0.0 0.0 0.0 0.0 0.0 0.0 0.0 0.0 0.0 0.0 0.0
0.0 1.2 0.0 0.0 0.0 0.0 0.0 0.0 6.5 9.7 14.9 16.2 13.7 16.1 16.6 10.9 7.9 3.1 2.2 0.1 0.0 0.0 0.0 0.0 0.0 0.0 0.0 0.0 0.0 0.0 0.0 0.0 0.0 0.0 0.0 0.0 0.0 0.0 0.0 0.0 0.0 0.0 0.0 0.0
0.0 0.0 0.8 0.0 2.1 7.4 3.4 6.8 6.5 7.9 12.7 17.2 17.8 16.8 6.4 11.2 5.9 5.6 2.4 0.0 0.0 0.0 0.0 0.0 0.0 0.0 0.0 0.0 0.0 0.0 0.0 0.0 0.0 0.0 0.0 0.0 0.0 0.0 0.0 0.0 0.0 0.0 0.0 0.0
0.0 0.0 4.5 6.8 0.0 0.0 1.0 4.6 9.7 13.7 14.5 16.0 17.0 16.2 3.1 3.8 3.0 1.4 1.0 0.0 0.0 0.0 0.0 0.0 0.0 0.0 0.0 0.0 0.0 0.0 0.0 0.0 0.0 0.0 0.0 0.0 0.0 0.0 0.0 0.0 0.0 0.0 0.0 0.0
0.0 0.7 5.2 7.2 1.8 0.0 4.3 4.4 5.1 9.8 13.4 17.1 17.7 14.4 0.5 3.3 2.9 0.7 1.5 0.0 0.0 0.0 0.0 0.0 0.0 0.0 0.0 0.0 0.0 0.0 0.0 0.0 0.0 0.0 0.0 0.0 0.0 0.0 0.0 0.0 0.0 0.0 0.0 0.0
0.0 0.0 2.3 9.0 6.9 5.9 9.3 6.9 6.9 12.4 15.5 16.3 16.2 14.1 10.5 7.9 5.9 3.1 1.6 1.1 0.0 0.0 0.0 0.0 0.0 0.0 0.3 0.0 0.0 0.0 0.0 0.0 0.0 0.0 0.0 0.0 0.0 0.0 0.0 0.0 0.0 0.0 0.0 0.0
0.0 1.5 0.0 1.6 1.3 1.6 1.9 7.9 9.3 12.3 12.8 16.0 13.4 14.4 12.3 8.0 6.4 3.7 1.1 0.5 0.3 0.0 0.0 0.1 1.3 1.4 1.1 0.7 0.0 0.0 0.0 0.0 0.0 0.0 0.0 0.0 0.0 0.0 0.0 0.0 0.0 0.0 0.0 0.0
0.0 2.5 0.0 5.7 1.8 2.0 8.7 3.1 3.0 5.3 6.6 9.3 11.5 14.4 5.7 3.8 2.6 3.0 4.0 2.0 2.4 1.1 0.0 0.6 1.2 2.0 2.1 1.8 1.0 0.0 0.0 0.0 0.0 0.0 0.0 0.0 0.0 0.0 0.0 0.0 0.0 0.0 0.1 0.0
0.0 2.4 5.1 7.3 6.5 8.3 10.0 8.7 6.1 7.3 7.7 8.7 14.9 12.2 6.0 6.9 4.8 4.9 5.3 2.6 2.5 1.2 0.0 1.5 3.0 3.2 1.8 1.3 0.2 1.2 0.0 0.0 0.0 0.0 0.0 0.0 0.0 0.0 0.0 0.0 0.0 0.4 1.3 0.6
0.0 3.5 5.6 7.6 7.5 12.0 8.4 0.0 4.5 8.1 7.3 8.4 9.6 7.1 6.1 6.2 3.5 2.3 1.2 2.1 1.9 0.3 0.5 1.3 3.8 2.7 0.5 0.0 0.0 0.0 0.0 0.0 0.0 0.0 0.0 0.0 0.0 0.0 0.0 0.0 0.0 0.0 0.2 1.9
0.0 3.1 6.0 7.5 9.1 9.8 6.1 5.7 6.5 9.2 11.5 5.1 10.1 6.7 5.9 4.0 6.8 7.7 0.0 0.0 0.0 0.0 0.0 0.0 1.3 0.0 0.0 0.1 0.0 0.0 0.0 0.0 0.0 0.0 0.0 0.0 0.0 0.1 0.8 1.4 0.0 0.0 0.0 0.0
0.0 2.7 4.9 7.5 9.5 10.9 7.5 2.4 1.4 3.8 13.9 5.2 6.3 8.0 8.5 8.1 14.6 10.5 0.9 0.0 0.0 0.0 0.0 0.0 0.5 0.0 0.0 0.2 0.0 0.0 0.0 0.0 0.0 0.0 0.0 0.0 0.0 0.0 1.8 1.8 1.2 0.0 0.0 0.0
2.2 3.5 5.3 7.8 9.4 9.0 5.0 1.7 1.9 13.0 12.5 6.3 5.9 7.2 8.0 10.8 9.7 3.4 0.0 0.0 0.0 0.0 0.0 0.0 0.0 0.6 0.3 0.0 0.0 1.1 0.1 0.0 0.0 0.0 0.0 0.0 0.0 0.0 0.4 0.9 0.3 0.6 0.6 0.2
1.1 4.0 5.7 8.0 9.0 8.0 0.5 2.7 9.0 6.2 5.8 5.9 6.7 3.7 7.0 4.1 3.2 1.5 0.4 1.0 0.0 0.0 0.0 0.0 2.3 1.3 0.0 0.0 0.6 1.2 1.5 0.0 0.0 0.0 0.0 0.0 1.0 0.0 0.0 0.5 0.6 0.4 0.9 1.4
1.3 0.2 2.2 3.8 3.8 0.0 0.8 1.2 0.0 0.0 5.7 1.9 2.2 1.9 2.4 3.8 3.4 2.1 2.4 2.0 0.6 0.0 0.0 0.0 2.0 1.6 0.5 0.6 0.2 2.0 0.0 0.0 0.0 0.0 0.0 0.0 0.0 0.0 0.0 0.3 0.4 1.1 0.8 1.6
0.0 0.0 0.3 2.2 2.3 1.7 1.5 0.0 0.0 0.0 0.6 0.0 0.0 0.0 1.1 3.1 2.9 3.3 2.9 2.4 1.2 0.0 1.0 0.6 2.7 3.5 3.6 1.6 0.1 0.0 0.0 0.0 0.0 0.0 0.1 0.0 0.0 0.1 1.1 0.0 0.0 0.0 0.1 1.5
0.0 0.8 1.8 3.1 3.0 2.5 3.4 0.0 0.0 0.0 0.0 0.0 0.0 0.0 0.2 1.3 3.1 2.5 3.6 2.9 1.3 0.9 0.4 0.9 3.6 3.9 3.9 1.9 0.9 0.0 0.0 0.0 0.0 0.0 0.0 0.0 0.0 0.9 1.4 0.4 0.0 0.0 0.0 0.0
0.0 0.0 0.0 0.0 0.0 0.3 2.0 0.0 0.0 0.3 1.4 0.0 0.0 0.8 0.0 0.5 2.1 2.1 3.9 1.7 0.6 1.3 0.4 2.4 3.1 4.0 3.5 2.2 1.0 0.0 0.0 0.0 0.0 0.7 0.0 0.0 0.6 1.2 0.9 2.1 2.5 0.0 0.0 0.0